User: anonymous   Login
Location: Caltech
(34.1382°N, 118.1253°W)
Time: 21:09:45
(UTC-08:00)
Language:

GPS 2-04 Rocket1 - Orbit

View from above orbital plane
View from above orbital plane
View from above satellite
View from above satellite

Ground track
Ground track

The orbit data is extracted from the following two-line orbital elements,

1 20303U 89085B   14327.47869003  .00017621  00000-0  79138-3 0  9259
2 20303 035.6328 094.3526 0133522 221.2155 199.0989 15.12627877357994
Epoch (UTC): 23 November 2014 11:29:18
Eccentricity: 0.0133522
inclination: 35.6328°
perigee height: 436 km
apogee height: 620 km
right ascension of ascending node: 94.3526°
argument of perigee: 221.2155°
revolutions per day: 15.12627877
mean anomaly at epoch: 199.0989°
orbit number at epoch: 35799

The dashed part of the orbit path shows where the satellite is in the earth's shadow,  

DLR